sat.trackr.live / text

‹ back to catalog

PATHFINDER 1

NORAD 41787 · 2016-059E

PAYLOAD ACTIVE UNKNOWN

§ Identity

Operator
Country
US
Launch date
2016-09-26
Launch site
SRILR
Launch vehicle
Mass (kg)
RCS (m²)
0.38

Purposes: earth_obs

External: N2YO · Heavens-Above · Gunter

§ Orbital elements

Epoch: 2026-09-19T16:39:48.190464Z

Period
98.11 min
Inclination
97.8237°
Eccentricity
0.0026888
Mean motion
14.67759846 rev/d
Perigee alt
649.3 km
Apogee alt
687.2 km
Semi-major
7,046.4 km
B*
7.3990e-5
RAAN
257.7397°
Arg perigee
264.8211°
Mean anomaly
94.9925°
Rev number
53,357

§ Raw data

PATHFINDER 11 41787U 16059E   26262.69430776  .00000377  00000+0  73990-4 0  99962 41787  97.8237 257.7397 0026888 264.8211  94.9925 14.67759846533579

JSON: /api/v1/satellites/41787 · /tle

For live sub-satellite position, see the globe view (requires WebGL).

§ Visibility from observer

Set your observer location to see the next 7 days of passes ≥ 10°. The values pass through the URL so the page stays shareable.

No JS? Fill the form by hand. The geolocation button needs JavaScript.